<?xml version="1.0" encoding="UTF-8" standalone="no" ?>
<gpx xmlns="http://www.topografix.com/GPX/1/1" xmlns:xsi="http://www.w3.org/2001/XMLSchema-instance" xsi:schemaLocation="http://www.topografix.com/GPX/1/1 http://www.topografix.com/GPX/1/1/gpx.xsd" version="1.1" creator="VisuGPX - https://www.visugpx.com">
  <metadata>
    <name>20180519 - Sentier de Rombly</name>
    <desc><![CDATA[Sentier de Rombly - Etaples - 19 mai 2018]]></desc>
  </metadata>
  <wpt lat="50.52076" lon="1.62795">
    <ele>4.2</ele>
  </wpt>
  <trk>
    <name><![CDATA[20180512005701-qXqJL]]></name>
    <trkseg>
      <trkpt lat="50.52076" lon="1.62795">
        <ele>4</ele>
        <time>2009-04-03T14:15:57Z</time>
      </trkpt>
      <trkpt lat="50.52082" lon="1.62741">
        <ele>4</ele>
        <time>2009-04-03T14:15:57Z</time>
      </trkpt>
      <trkpt lat="50.52087" lon="1.62728">
        <ele>4</ele>
        <time>2009-04-03T14:15:57Z</time>
      </trkpt>
      <trkpt lat="50.52172" lon="1.62658">
        <ele>4</ele>
        <time>2009-04-03T14:15:57Z</time>
      </trkpt>
      <trkpt lat="50.52206" lon="1.62645">
        <ele>4</ele>
        <time>2009-04-03T14:15:57Z</time>
      </trkpt>
      <trkpt lat="50.52284" lon="1.62595">
        <ele>6</ele>
        <time>2009-04-03T14:15:57Z</time>
      </trkpt>
      <trkpt lat="50.52346" lon="1.62584">
        <ele>7</ele>
        <time>2009-04-03T14:15:57Z</time>
      </trkpt>
      <trkpt lat="50.52371" lon="1.62568">
        <ele>6</ele>
        <time>2009-04-03T14:15:57Z</time>
      </trkpt>
      <trkpt lat="50.52381" lon="1.6255">
        <ele>5</ele>
        <time>2009-04-03T14:15:57Z</time>
      </trkpt>
      <trkpt lat="50.52437" lon="1.62531">
        <ele>7</ele>
        <time>2009-04-03T14:15:57Z</time>
      </trkpt>
      <trkpt lat="50.52479" lon="1.62503">
        <ele>8</ele>
        <time>2009-04-03T14:15:57Z</time>
      </trkpt>
      <trkpt lat="50.52519" lon="1.62486">
        <ele>7</ele>
        <time>2009-04-03T14:15:57Z</time>
      </trkpt>
      <trkpt lat="50.52561" lon="1.62453">
        <ele>7</ele>
        <time>2009-04-03T14:15:57Z</time>
      </trkpt>
      <trkpt lat="50.5269" lon="1.62364">
        <ele>6</ele>
        <time>2009-04-03T14:15:57Z</time>
      </trkpt>
      <trkpt lat="50.52844" lon="1.62253">
        <ele>7</ele>
        <time>2009-04-03T14:15:57Z</time>
      </trkpt>
      <trkpt lat="50.52946" lon="1.62195">
        <ele>6</ele>
        <time>2009-04-03T14:15:57Z</time>
      </trkpt>
      <trkpt lat="50.53165" lon="1.62125">
        <ele>7</ele>
        <time>2009-04-03T14:15:57Z</time>
      </trkpt>
      <trkpt lat="50.53215" lon="1.62099">
        <ele>8</ele>
        <time>2009-04-03T14:15:57Z</time>
      </trkpt>
      <trkpt lat="50.53327" lon="1.62032">
        <ele>6</ele>
        <time>2009-04-03T14:15:57Z</time>
      </trkpt>
      <trkpt lat="50.53351" lon="1.62016">
        <ele>7</ele>
        <time>2009-04-03T14:15:57Z</time>
      </trkpt>
      <trkpt lat="50.53423" lon="1.61913">
        <ele>5</ele>
        <time>2009-04-03T14:15:57Z</time>
      </trkpt>
      <trkpt lat="50.53455" lon="1.61838">
        <ele>5</ele>
        <time>2009-04-03T14:15:57Z</time>
      </trkpt>
      <trkpt lat="50.53479" lon="1.61812">
        <ele>5</ele>
        <time>2009-04-03T14:15:57Z</time>
      </trkpt>
      <trkpt lat="50.53503" lon="1.61807">
        <ele>6</ele>
        <time>2009-04-03T14:15:57Z</time>
      </trkpt>
      <trkpt lat="50.53514" lon="1.61796">
        <ele>6</ele>
        <time>2009-04-03T14:15:57Z</time>
      </trkpt>
      <trkpt lat="50.53523" lon="1.61772">
        <ele>6</ele>
        <time>2009-04-03T14:15:57Z</time>
      </trkpt>
      <trkpt lat="50.53507" lon="1.61716">
        <ele>6</ele>
        <time>2009-04-03T14:15:57Z</time>
      </trkpt>
      <trkpt lat="50.5349" lon="1.61677">
        <ele>5</ele>
        <time>2009-04-03T14:15:57Z</time>
      </trkpt>
      <trkpt lat="50.53484" lon="1.61654">
        <ele>5</ele>
        <time>2009-04-03T14:15:57Z</time>
      </trkpt>
      <trkpt lat="50.53495" lon="1.61627">
        <ele>5</ele>
      </trkpt>
      <trkpt lat="50.53521" lon="1.61602">
        <ele>6</ele>
      </trkpt>
      <trkpt lat="50.5354" lon="1.6157">
        <ele>6</ele>
      </trkpt>
      <trkpt lat="50.53533" lon="1.61552">
        <ele>6</ele>
      </trkpt>
      <trkpt lat="50.53554" lon="1.61537">
        <ele>6</ele>
      </trkpt>
      <trkpt lat="50.53556" lon="1.61512">
        <ele>6</ele>
      </trkpt>
      <trkpt lat="50.53565" lon="1.61487">
        <ele>6</ele>
      </trkpt>
      <trkpt lat="50.53562" lon="1.61473">
        <ele>5</ele>
      </trkpt>
      <trkpt lat="50.53568" lon="1.61456">
        <ele>5</ele>
      </trkpt>
      <trkpt lat="50.53623" lon="1.6144">
        <ele>6</ele>
        <time>2009-04-03T14:15:57Z</time>
      </trkpt>
      <trkpt lat="50.53695" lon="1.61411">
        <ele>5</ele>
        <time>2009-04-03T14:15:57Z</time>
      </trkpt>
      <trkpt lat="50.53714" lon="1.61392">
        <ele>5</ele>
        <time>2009-04-03T14:15:57Z</time>
      </trkpt>
      <trkpt lat="50.53794" lon="1.61353">
        <ele>6</ele>
        <time>2009-04-03T14:15:57Z</time>
      </trkpt>
      <trkpt lat="50.53876" lon="1.61281">
        <ele>6</ele>
        <time>2009-04-03T14:15:57Z</time>
      </trkpt>
      <trkpt lat="50.53884" lon="1.61267">
        <ele>6</ele>
        <time>2009-04-03T14:15:57Z</time>
      </trkpt>
      <trkpt lat="50.53888" lon="1.61212">
        <ele>5</ele>
        <time>2009-04-03T14:15:57Z</time>
      </trkpt>
      <trkpt lat="50.53884" lon="1.61196">
        <ele>4</ele>
        <time>2009-04-03T14:15:57Z</time>
      </trkpt>
      <trkpt lat="50.53851" lon="1.61156">
        <ele>4</ele>
        <time>2009-04-03T14:15:57Z</time>
      </trkpt>
      <trkpt lat="50.53844" lon="1.61104">
        <ele>4</ele>
        <time>2009-04-03T14:15:57Z</time>
      </trkpt>
      <trkpt lat="50.53881" lon="1.61052">
        <ele>5</ele>
        <time>2009-04-03T14:15:57Z</time>
      </trkpt>
      <trkpt lat="50.53904" lon="1.61042">
        <ele>5</ele>
        <time>2009-04-03T14:15:57Z</time>
      </trkpt>
      <trkpt lat="50.53981" lon="1.60974">
        <ele>6</ele>
        <time>2009-04-03T14:15:57Z</time>
      </trkpt>
      <trkpt lat="50.54009" lon="1.6103">
        <ele>6</ele>
        <time>2009-04-03T14:15:57Z</time>
      </trkpt>
      <trkpt lat="50.54022" lon="1.6104">
        <ele>6</ele>
        <time>2009-04-03T14:15:57Z</time>
      </trkpt>
      <trkpt lat="50.5405" lon="1.61119">
        <ele>7</ele>
        <time>2009-04-03T14:15:57Z</time>
      </trkpt>
      <trkpt lat="50.5405" lon="1.61166">
        <ele>7</ele>
        <time>2009-04-03T14:15:57Z</time>
      </trkpt>
      <trkpt lat="50.54054" lon="1.61283">
        <ele>8</ele>
        <time>2009-04-03T14:15:57Z</time>
      </trkpt>
      <trkpt lat="50.54051" lon="1.61412">
        <ele>7</ele>
        <time>2009-04-03T14:15:57Z</time>
      </trkpt>
      <trkpt lat="50.54055" lon="1.61613">
        <ele>8</ele>
        <time>2009-04-03T14:15:57Z</time>
      </trkpt>
      <trkpt lat="50.54049" lon="1.61693">
        <ele>9</ele>
        <time>2009-04-03T14:15:57Z</time>
      </trkpt>
      <trkpt lat="50.54059" lon="1.6177">
        <ele>12</ele>
        <time>2009-04-03T14:15:57Z</time>
      </trkpt>
      <trkpt lat="50.54095" lon="1.61953">
        <ele>19</ele>
        <time>2009-04-03T14:15:57Z</time>
      </trkpt>
      <trkpt lat="50.54122" lon="1.62139">
        <ele>27</ele>
        <time>2009-04-03T14:15:57Z</time>
      </trkpt>
      <trkpt lat="50.54126" lon="1.62221">
        <ele>32</ele>
        <time>2009-04-03T14:15:57Z</time>
      </trkpt>
      <trkpt lat="50.54172" lon="1.62201">
        <ele>33</ele>
        <time>2009-04-03T14:15:57Z</time>
      </trkpt>
      <trkpt lat="50.542" lon="1.62279">
        <ele>39</ele>
        <time>2009-04-03T14:15:57Z</time>
      </trkpt>
      <trkpt lat="50.5424" lon="1.62364">
        <ele>46</ele>
        <time>2009-04-03T14:15:57Z</time>
      </trkpt>
      <trkpt lat="50.54249" lon="1.6241">
        <ele>51</ele>
        <time>2009-04-03T14:15:57Z</time>
      </trkpt>
      <trkpt lat="50.54263" lon="1.6245">
        <ele>58</ele>
        <time>2009-04-03T14:15:57Z</time>
      </trkpt>
      <trkpt lat="50.54271" lon="1.62452">
        <ele>58</ele>
        <time>2009-04-03T14:15:57Z</time>
      </trkpt>
      <trkpt lat="50.54276" lon="1.62462">
        <ele>59</ele>
        <time>2009-04-03T14:15:57Z</time>
      </trkpt>
      <trkpt lat="50.5429" lon="1.62456">
        <ele>59</ele>
        <time>2009-04-03T14:15:57Z</time>
      </trkpt>
      <trkpt lat="50.54328" lon="1.6242">
        <ele>56</ele>
        <time>2009-04-03T14:15:57Z</time>
      </trkpt>
      <trkpt lat="50.5434" lon="1.62411">
        <ele>54</ele>
        <time>2009-04-03T14:15:57Z</time>
      </trkpt>
      <trkpt lat="50.54472" lon="1.62388">
        <ele>57</ele>
        <time>2009-04-03T14:15:57Z</time>
      </trkpt>
      <trkpt lat="50.54482" lon="1.62395">
        <ele>58</ele>
        <time>2009-04-03T14:15:57Z</time>
      </trkpt>
      <trkpt lat="50.54504" lon="1.62382">
        <ele>60</ele>
        <time>2009-04-03T14:15:57Z</time>
      </trkpt>
      <trkpt lat="50.54519" lon="1.62383">
        <ele>60</ele>
        <time>2009-04-03T14:15:57Z</time>
      </trkpt>
      <trkpt lat="50.54523" lon="1.62392">
        <ele>60</ele>
        <time>2009-04-03T14:15:57Z</time>
      </trkpt>
      <trkpt lat="50.54544" lon="1.62403">
        <ele>61</ele>
        <time>2009-04-03T14:15:57Z</time>
      </trkpt>
      <trkpt lat="50.54556" lon="1.62429">
        <ele>64</ele>
        <time>2009-04-03T14:15:57Z</time>
      </trkpt>
      <trkpt lat="50.54585" lon="1.62424">
        <ele>63</ele>
        <time>2009-04-03T14:15:57Z</time>
      </trkpt>
      <trkpt lat="50.54588" lon="1.62409">
        <ele>62</ele>
        <time>2009-04-03T14:15:57Z</time>
      </trkpt>
      <trkpt lat="50.54611" lon="1.6238">
        <ele>61</ele>
        <time>2009-04-03T14:15:57Z</time>
      </trkpt>
      <trkpt lat="50.54611" lon="1.6235">
        <ele>60</ele>
        <time>2009-04-03T14:15:57Z</time>
      </trkpt>
      <trkpt lat="50.54582" lon="1.62298">
        <ele>54</ele>
        <time>2009-04-03T14:15:57Z</time>
      </trkpt>
      <trkpt lat="50.54597" lon="1.62287">
        <ele>53</ele>
        <time>2009-04-03T14:15:57Z</time>
      </trkpt>
      <trkpt lat="50.54622" lon="1.62238">
        <ele>43</ele>
        <time>2009-04-03T14:15:57Z</time>
      </trkpt>
      <trkpt lat="50.54657" lon="1.62236">
        <ele>44</ele>
        <time>2009-04-03T14:15:57Z</time>
      </trkpt>
      <trkpt lat="50.54696" lon="1.62206">
        <ele>39</ele>
        <time>2009-04-03T14:15:57Z</time>
      </trkpt>
      <trkpt lat="50.54741" lon="1.62204">
        <ele>39</ele>
        <time>2009-04-03T14:15:57Z</time>
      </trkpt>
      <trkpt lat="50.54762" lon="1.62212">
        <ele>40</ele>
      </trkpt>
      <trkpt lat="50.54824" lon="1.6225">
        <ele>44</ele>
      </trkpt>
      <trkpt lat="50.54862" lon="1.62305">
        <ele>53</ele>
      </trkpt>
      <trkpt lat="50.54893" lon="1.62325">
        <ele>56</ele>
      </trkpt>
      <trkpt lat="50.54939" lon="1.62322">
        <ele>61</ele>
        <time>2009-04-03T14:15:57Z</time>
      </trkpt>
      <trkpt lat="50.54964" lon="1.62282">
        <ele>60</ele>
        <time>2009-04-03T14:15:57Z</time>
      </trkpt>
      <trkpt lat="50.54995" lon="1.62258">
        <ele>62</ele>
        <time>2009-04-03T14:15:57Z</time>
      </trkpt>
      <trkpt lat="50.55042" lon="1.62212">
        <ele>63</ele>
        <time>2009-04-03T14:15:57Z</time>
      </trkpt>
      <trkpt lat="50.55041" lon="1.62195">
        <ele>62</ele>
        <time>2009-04-03T14:15:57Z</time>
      </trkpt>
      <trkpt lat="50.55052" lon="1.62165">
        <ele>58</ele>
        <time>2009-04-03T14:15:57Z</time>
      </trkpt>
      <trkpt lat="50.55074" lon="1.62154">
        <ele>60</ele>
        <time>2009-04-03T14:15:57Z</time>
      </trkpt>
      <trkpt lat="50.55104" lon="1.6219">
        <ele>65</ele>
        <time>2009-04-03T14:15:57Z</time>
      </trkpt>
      <trkpt lat="50.55129" lon="1.6221">
        <ele>66</ele>
        <time>2009-04-03T14:15:57Z</time>
      </trkpt>
      <trkpt lat="50.55138" lon="1.62195">
        <ele>66</ele>
        <time>2009-04-03T14:15:57Z</time>
      </trkpt>
      <trkpt lat="50.55145" lon="1.62169">
        <ele>65</ele>
        <time>2009-04-03T14:15:57Z</time>
      </trkpt>
      <trkpt lat="50.55185" lon="1.62163">
        <ele>61</ele>
        <time>2009-04-03T14:15:57Z</time>
      </trkpt>
      <trkpt lat="50.55192" lon="1.62133">
        <ele>59</ele>
        <time>2009-04-03T14:15:57Z</time>
      </trkpt>
      <trkpt lat="50.55179" lon="1.6209">
        <ele>57</ele>
        <time>2009-04-03T14:15:57Z</time>
      </trkpt>
      <trkpt lat="50.55171" lon="1.62059">
        <ele>51</ele>
        <time>2009-04-03T14:15:57Z</time>
      </trkpt>
      <trkpt lat="50.55133" lon="1.6202">
        <ele>49</ele>
        <time>2009-04-03T14:15:57Z</time>
      </trkpt>
      <trkpt lat="50.55125" lon="1.61951">
        <ele>41</ele>
        <time>2009-04-03T14:15:57Z</time>
      </trkpt>
      <trkpt lat="50.55144" lon="1.61929">
        <ele>40</ele>
        <time>2009-04-03T14:15:57Z</time>
      </trkpt>
      <trkpt lat="50.55147" lon="1.6187">
        <ele>33</ele>
        <time>2009-04-03T14:15:57Z</time>
      </trkpt>
      <trkpt lat="50.55348" lon="1.6192">
        <ele>43</ele>
        <time>2009-04-03T14:15:57Z</time>
      </trkpt>
      <trkpt lat="50.55406" lon="1.6192">
        <ele>44</ele>
        <time>2009-04-03T14:15:57Z</time>
      </trkpt>
      <trkpt lat="50.55492" lon="1.61911">
        <ele>40</ele>
        <time>2009-04-03T14:15:57Z</time>
      </trkpt>
      <trkpt lat="50.55901" lon="1.61831">
        <ele>35</ele>
        <time>2009-04-03T14:15:57Z</time>
      </trkpt>
      <trkpt lat="50.55848" lon="1.61924">
        <ele>41</ele>
        <time>2009-04-03T14:15:57Z</time>
      </trkpt>
      <trkpt lat="50.55825" lon="1.6198">
        <ele>42</ele>
        <time>2009-04-03T14:15:57Z</time>
      </trkpt>
      <trkpt lat="50.55794" lon="1.62112">
        <ele>52</ele>
        <time>2009-04-03T14:15:57Z</time>
      </trkpt>
      <trkpt lat="50.55734" lon="1.62151">
        <ele>57</ele>
        <time>2009-04-03T14:15:57Z</time>
      </trkpt>
      <trkpt lat="50.55708" lon="1.62155">
        <ele>57</ele>
        <time>2009-04-03T14:15:57Z</time>
      </trkpt>
      <trkpt lat="50.55684" lon="1.62178">
        <ele>63</ele>
        <time>2009-04-03T14:15:57Z</time>
      </trkpt>
      <trkpt lat="50.55623" lon="1.622">
        <ele>65</ele>
        <time>2009-04-03T14:15:57Z</time>
      </trkpt>
      <trkpt lat="50.55587" lon="1.62241">
        <ele>68</ele>
        <time>2009-04-03T14:15:57Z</time>
      </trkpt>
      <trkpt lat="50.55576" lon="1.62269">
        <ele>72</ele>
        <time>2009-04-03T14:15:57Z</time>
      </trkpt>
      <trkpt lat="50.55579" lon="1.62287">
        <ele>74</ele>
        <time>2009-04-03T14:15:57Z</time>
      </trkpt>
      <trkpt lat="50.55594" lon="1.62328">
        <ele>77</ele>
        <time>2009-04-03T14:15:57Z</time>
      </trkpt>
      <trkpt lat="50.55615" lon="1.62354">
        <ele>79</ele>
      </trkpt>
      <trkpt lat="50.55605" lon="1.62426">
        <ele>79</ele>
      </trkpt>
      <trkpt lat="50.55595" lon="1.62453">
        <ele>80</ele>
      </trkpt>
      <trkpt lat="50.55594" lon="1.62492">
        <ele>80</ele>
      </trkpt>
      <trkpt lat="50.55543" lon="1.6258">
        <ele>80</ele>
      </trkpt>
      <trkpt lat="50.5554" lon="1.62612">
        <ele>78</ele>
        <time>2009-04-03T14:15:57Z</time>
      </trkpt>
      <trkpt lat="50.55569" lon="1.62628">
        <ele>77</ele>
        <time>2009-04-03T14:15:57Z</time>
      </trkpt>
      <trkpt lat="50.55563" lon="1.62642">
        <ele>77</ele>
        <time>2009-04-03T14:15:57Z</time>
      </trkpt>
      <trkpt lat="50.55505" lon="1.62768">
        <ele>75</ele>
        <time>2009-04-03T14:15:57Z</time>
      </trkpt>
      <trkpt lat="50.55448" lon="1.62874">
        <ele>74</ele>
        <time>2009-04-03T14:15:57Z</time>
      </trkpt>
      <trkpt lat="50.55413" lon="1.62954">
        <ele>73</ele>
        <time>2009-04-03T14:15:57Z</time>
      </trkpt>
      <trkpt lat="50.55339" lon="1.63077">
        <ele>80</ele>
        <time>2009-04-03T14:15:57Z</time>
      </trkpt>
      <trkpt lat="50.55291" lon="1.63172">
        <ele>91</ele>
        <time>2009-04-03T14:15:57Z</time>
      </trkpt>
      <trkpt lat="50.55282" lon="1.63161">
        <ele>88</ele>
        <time>2009-04-03T14:15:57Z</time>
      </trkpt>
      <trkpt lat="50.55192" lon="1.63109">
        <ele>87</ele>
        <time>2009-04-03T14:15:57Z</time>
      </trkpt>
      <trkpt lat="50.55105" lon="1.63454">
        <ele>76</ele>
        <time>2009-04-03T14:15:57Z</time>
      </trkpt>
      <trkpt lat="50.55091" lon="1.63687">
        <ele>73</ele>
        <time>2009-04-03T14:15:57Z</time>
      </trkpt>
      <trkpt lat="50.55087" lon="1.63819">
        <ele>86</ele>
        <time>2009-04-03T14:15:57Z</time>
      </trkpt>
      <trkpt lat="50.55128" lon="1.63838">
        <ele>89</ele>
        <time>2009-04-03T14:15:57Z</time>
      </trkpt>
      <trkpt lat="50.55155" lon="1.63863">
        <ele>89</ele>
        <time>2009-04-03T14:15:57Z</time>
      </trkpt>
      <trkpt lat="50.55172" lon="1.63898">
        <ele>86</ele>
        <time>2009-04-03T14:15:57Z</time>
      </trkpt>
      <trkpt lat="50.55206" lon="1.64047">
        <ele>91</ele>
        <time>2009-04-03T14:15:57Z</time>
      </trkpt>
      <trkpt lat="50.55239" lon="1.64146">
        <ele>93</ele>
        <time>2009-04-03T14:15:57Z</time>
      </trkpt>
      <trkpt lat="50.55268" lon="1.64195">
        <ele>89</ele>
        <time>2009-04-03T14:15:57Z</time>
      </trkpt>
      <trkpt lat="50.55314" lon="1.64242">
        <ele>87</ele>
        <time>2009-04-03T14:15:57Z</time>
      </trkpt>
      <trkpt lat="50.55365" lon="1.64323">
        <ele>88</ele>
        <time>2009-04-03T14:15:57Z</time>
      </trkpt>
      <trkpt lat="50.55387" lon="1.6438">
        <ele>90</ele>
        <time>2009-04-03T14:15:57Z</time>
      </trkpt>
      <trkpt lat="50.55365" lon="1.64401">
        <ele>91</ele>
        <time>2009-04-03T14:15:57Z</time>
      </trkpt>
      <trkpt lat="50.55014" lon="1.64962">
        <ele>69</ele>
        <time>2009-04-03T14:15:57Z</time>
      </trkpt>
      <trkpt lat="50.54964" lon="1.65038">
        <ele>66</ele>
        <time>2009-04-03T14:15:57Z</time>
      </trkpt>
      <trkpt lat="50.54943" lon="1.65055">
        <ele>66</ele>
        <time>2009-04-03T14:15:57Z</time>
      </trkpt>
      <trkpt lat="50.54914" lon="1.6507">
        <ele>68</ele>
        <time>2009-04-03T14:15:57Z</time>
      </trkpt>
      <trkpt lat="50.54891" lon="1.65074">
        <ele>68</ele>
        <time>2009-04-03T14:15:57Z</time>
      </trkpt>
      <trkpt lat="50.5485" lon="1.65091">
        <ele>74</ele>
        <time>2009-04-03T14:15:57Z</time>
      </trkpt>
      <trkpt lat="50.54825" lon="1.65111">
        <ele>79</ele>
        <time>2009-04-03T14:15:57Z</time>
      </trkpt>
      <trkpt lat="50.54818" lon="1.65122">
        <ele>81</ele>
        <time>2009-04-03T14:15:57Z</time>
      </trkpt>
      <trkpt lat="50.54816" lon="1.6514">
        <ele>82</ele>
        <time>2009-04-03T14:15:57Z</time>
      </trkpt>
      <trkpt lat="50.54831" lon="1.65198">
        <ele>87</ele>
        <time>2009-04-03T14:15:57Z</time>
      </trkpt>
      <trkpt lat="50.5483" lon="1.65234">
        <ele>86</ele>
        <time>2009-04-03T14:15:57Z</time>
      </trkpt>
      <trkpt lat="50.5472" lon="1.6553">
        <ele>82</ele>
        <time>2009-04-03T14:15:57Z</time>
      </trkpt>
      <trkpt lat="50.54643" lon="1.65645">
        <ele>77</ele>
        <time>2009-04-03T14:15:57Z</time>
      </trkpt>
      <trkpt lat="50.54615" lon="1.65658">
        <ele>75</ele>
        <time>2009-04-03T14:15:57Z</time>
      </trkpt>
      <trkpt lat="50.54423" lon="1.65665">
        <ele>66</ele>
        <time>2009-04-03T14:15:57Z</time>
      </trkpt>
      <trkpt lat="50.54303" lon="1.65358">
        <ele>61</ele>
        <time>2009-04-03T14:15:57Z</time>
      </trkpt>
      <trkpt lat="50.54264" lon="1.65295">
        <ele>58</ele>
        <time>2009-04-03T14:15:57Z</time>
      </trkpt>
      <trkpt lat="50.54186" lon="1.65184">
        <ele>56</ele>
        <time>2009-04-03T14:15:57Z</time>
      </trkpt>
      <trkpt lat="50.54135" lon="1.65129">
        <ele>55</ele>
        <time>2009-04-03T14:15:57Z</time>
      </trkpt>
      <trkpt lat="50.54101" lon="1.65078">
        <ele>52</ele>
        <time>2009-04-03T14:15:57Z</time>
      </trkpt>
      <trkpt lat="50.54061" lon="1.64993">
        <ele>48</ele>
        <time>2009-04-03T14:15:57Z</time>
      </trkpt>
      <trkpt lat="50.5396" lon="1.64687">
        <ele>51</ele>
        <time>2009-04-03T14:15:57Z</time>
      </trkpt>
      <trkpt lat="50.53852" lon="1.64464">
        <ele>51</ele>
        <time>2009-04-03T14:15:57Z</time>
      </trkpt>
      <trkpt lat="50.53755" lon="1.64331">
        <ele>46</ele>
        <time>2009-04-03T14:15:57Z</time>
      </trkpt>
      <trkpt lat="50.53709" lon="1.64297">
        <ele>48</ele>
        <time>2009-04-03T14:15:57Z</time>
      </trkpt>
      <trkpt lat="50.53377" lon="1.64127">
        <ele>39</ele>
        <time>2009-04-03T14:15:57Z</time>
      </trkpt>
      <trkpt lat="50.53283" lon="1.64099">
        <ele>40</ele>
        <time>2009-04-03T14:15:57Z</time>
      </trkpt>
      <trkpt lat="50.53227" lon="1.64064">
        <ele>41</ele>
        <time>2009-04-03T14:15:57Z</time>
      </trkpt>
      <trkpt lat="50.53139" lon="1.63953">
        <ele>46</ele>
        <time>2009-04-03T14:15:57Z</time>
      </trkpt>
      <trkpt lat="50.5311" lon="1.63939">
        <ele>47</ele>
        <time>2009-04-03T14:15:57Z</time>
      </trkpt>
      <trkpt lat="50.52738" lon="1.6386">
        <ele>48</ele>
        <time>2009-04-03T14:15:57Z</time>
      </trkpt>
      <trkpt lat="50.526" lon="1.6386">
        <ele>51</ele>
      </trkpt>
      <trkpt lat="50.52606" lon="1.63889">
        <ele>51</ele>
      </trkpt>
      <trkpt lat="50.52601" lon="1.64033">
        <ele>59</ele>
      </trkpt>
      <trkpt lat="50.52614" lon="1.64033">
        <ele>58</ele>
      </trkpt>
      <trkpt lat="50.52625" lon="1.64059">
        <ele>58</ele>
      </trkpt>
      <trkpt lat="50.52615" lon="1.6414">
        <ele>59</ele>
      </trkpt>
      <trkpt lat="50.5264" lon="1.64189">
        <ele>60</ele>
      </trkpt>
      <trkpt lat="50.52648" lon="1.6431">
        <ele>61</ele>
      </trkpt>
      <trkpt lat="50.5266" lon="1.64318">
        <ele>60</ele>
      </trkpt>
      <trkpt lat="50.52656" lon="1.64406">
        <ele>59</ele>
      </trkpt>
      <trkpt lat="50.52715" lon="1.64404">
        <ele>55</ele>
      </trkpt>
      <trkpt lat="50.52711" lon="1.64423">
        <ele>55</ele>
      </trkpt>
      <trkpt lat="50.52732" lon="1.64447">
        <ele>55</ele>
      </trkpt>
      <trkpt lat="50.52719" lon="1.64466">
        <ele>55</ele>
      </trkpt>
      <trkpt lat="50.52734" lon="1.64511">
        <ele>54</ele>
      </trkpt>
      <trkpt lat="50.52777" lon="1.64589">
        <ele>53</ele>
      </trkpt>
      <trkpt lat="50.52781" lon="1.64621">
        <ele>53</ele>
      </trkpt>
      <trkpt lat="50.52818" lon="1.64599">
        <ele>52</ele>
      </trkpt>
      <trkpt lat="50.52835" lon="1.64621">
        <ele>50</ele>
      </trkpt>
      <trkpt lat="50.5282" lon="1.64674">
        <ele>51</ele>
      </trkpt>
      <trkpt lat="50.52822" lon="1.64715">
        <ele>50</ele>
      </trkpt>
      <trkpt lat="50.52837" lon="1.64756">
        <ele>46</ele>
      </trkpt>
      <trkpt lat="50.5282" lon="1.64812">
        <ele>44</ele>
      </trkpt>
      <trkpt lat="50.52791" lon="1.64799">
        <ele>45</ele>
      </trkpt>
      <trkpt lat="50.52756" lon="1.64816">
        <ele>44</ele>
      </trkpt>
      <trkpt lat="50.52719" lon="1.6488">
        <ele>41</ele>
      </trkpt>
      <trkpt lat="50.52674" lon="1.64872">
        <ele>41</ele>
      </trkpt>
      <trkpt lat="50.52667" lon="1.64887">
        <ele>41</ele>
      </trkpt>
      <trkpt lat="50.52655" lon="1.6487">
        <ele>41</ele>
      </trkpt>
      <trkpt lat="50.52626" lon="1.649">
        <ele>41</ele>
      </trkpt>
      <trkpt lat="50.52627" lon="1.64938">
        <ele>40</ele>
      </trkpt>
      <trkpt lat="50.52595" lon="1.64951">
        <ele>40</ele>
      </trkpt>
      <trkpt lat="50.52581" lon="1.6502">
        <ele>39</ele>
      </trkpt>
      <trkpt lat="50.52511" lon="1.65078">
        <ele>37</ele>
      </trkpt>
      <trkpt lat="50.52461" lon="1.65076">
        <ele>35</ele>
      </trkpt>
      <trkpt lat="50.52445" lon="1.65157">
        <ele>30</ele>
      </trkpt>
      <trkpt lat="50.52393" lon="1.65204">
        <ele>25</ele>
      </trkpt>
      <trkpt lat="50.52346" lon="1.65204">
        <ele>25</ele>
      </trkpt>
      <trkpt lat="50.52329" lon="1.6523">
        <ele>24</ele>
      </trkpt>
      <trkpt lat="50.52262" lon="1.65245">
        <ele>25</ele>
      </trkpt>
      <trkpt lat="50.52234" lon="1.65211">
        <ele>26</ele>
      </trkpt>
      <trkpt lat="50.52364" lon="1.65089">
        <ele>27</ele>
      </trkpt>
      <trkpt lat="50.52385" lon="1.65082">
        <ele>29</ele>
      </trkpt>
      <trkpt lat="50.52401" lon="1.65037">
        <ele>30</ele>
      </trkpt>
      <trkpt lat="50.52436" lon="1.65018">
        <ele>36</ele>
      </trkpt>
      <trkpt lat="50.5246" lon="1.64932">
        <ele>39</ele>
      </trkpt>
      <trkpt lat="50.52461" lon="1.64893">
        <ele>40</ele>
      </trkpt>
      <trkpt lat="50.52479" lon="1.64863">
        <ele>40</ele>
      </trkpt>
      <trkpt lat="50.52488" lon="1.64717">
        <ele>40</ele>
      </trkpt>
      <trkpt lat="50.5249" lon="1.64664">
        <ele>41</ele>
      </trkpt>
      <trkpt lat="50.52499" lon="1.64651">
        <ele>41</ele>
      </trkpt>
      <trkpt lat="50.525" lon="1.64614">
        <ele>44</ele>
      </trkpt>
      <trkpt lat="50.52518" lon="1.64589">
        <ele>45</ele>
      </trkpt>
      <trkpt lat="50.52535" lon="1.64486">
        <ele>51</ele>
      </trkpt>
      <trkpt lat="50.52494" lon="1.6446">
        <ele>46</ele>
      </trkpt>
      <trkpt lat="50.52536" lon="1.64359">
        <ele>57</ele>
      </trkpt>
      <trkpt lat="50.52566" lon="1.64219">
        <ele>59</ele>
      </trkpt>
      <trkpt lat="50.52532" lon="1.64157">
        <ele>57</ele>
      </trkpt>
      <trkpt lat="50.52515" lon="1.63964">
        <ele>55</ele>
      </trkpt>
      <trkpt lat="50.52562" lon="1.63941">
        <ele>55</ele>
      </trkpt>
      <trkpt lat="50.52596" lon="1.63956">
        <ele>56</ele>
      </trkpt>
      <trkpt lat="50.52599" lon="1.63893">
        <ele>52</ele>
      </trkpt>
      <trkpt lat="50.52593" lon="1.6386">
        <ele>51</ele>
        <time>2009-04-03T14:15:57Z</time>
      </trkpt>
      <trkpt lat="50.52581" lon="1.63819">
        <ele>47</ele>
        <time>2009-04-03T14:15:57Z</time>
      </trkpt>
      <trkpt lat="50.52567" lon="1.63816">
        <ele>46</ele>
        <time>2009-04-03T14:15:57Z</time>
      </trkpt>
      <trkpt lat="50.52512" lon="1.63629">
        <ele>35</ele>
        <time>2009-04-03T14:15:57Z</time>
      </trkpt>
      <trkpt lat="50.52512" lon="1.6361">
        <ele>35</ele>
        <time>2009-04-03T14:15:57Z</time>
      </trkpt>
      <trkpt lat="50.52486" lon="1.63563">
        <ele>30</ele>
        <time>2009-04-03T14:15:57Z</time>
      </trkpt>
      <trkpt lat="50.52445" lon="1.63417">
        <ele>24</ele>
        <time>2009-04-03T14:15:57Z</time>
      </trkpt>
      <trkpt lat="50.5241" lon="1.63352">
        <ele>21</ele>
        <time>2009-04-03T14:15:57Z</time>
      </trkpt>
      <trkpt lat="50.52346" lon="1.63321">
        <ele>16</ele>
        <time>2009-04-03T14:15:57Z</time>
      </trkpt>
      <trkpt lat="50.52324" lon="1.63272">
        <ele>13</ele>
        <time>2009-04-03T14:15:57Z</time>
      </trkpt>
      <trkpt lat="50.52309" lon="1.63287">
        <ele>13</ele>
        <time>2009-04-03T14:15:57Z</time>
      </trkpt>
      <trkpt lat="50.52285" lon="1.6324">
        <ele>12</ele>
        <time>2009-04-03T14:15:57Z</time>
      </trkpt>
      <trkpt lat="50.52268" lon="1.63183">
        <ele>11</ele>
        <time>2009-04-03T14:15:57Z</time>
      </trkpt>
      <trkpt lat="50.52268" lon="1.63141">
        <ele>11</ele>
        <time>2009-04-03T14:15:57Z</time>
      </trkpt>
      <trkpt lat="50.52276" lon="1.63109">
        <ele>10</ele>
        <time>2009-04-03T14:15:57Z</time>
      </trkpt>
      <trkpt lat="50.52289" lon="1.6307">
        <ele>10</ele>
        <time>2009-04-03T14:15:57Z</time>
      </trkpt>
      <trkpt lat="50.52259" lon="1.6299">
        <ele>9</ele>
        <time>2009-04-03T14:15:57Z</time>
      </trkpt>
      <trkpt lat="50.5223" lon="1.6293">
        <ele>8</ele>
        <time>2009-04-03T14:15:57Z</time>
      </trkpt>
      <trkpt lat="50.52198" lon="1.62871">
        <ele>7</ele>
        <time>2009-04-03T14:15:57Z</time>
      </trkpt>
      <trkpt lat="50.52167" lon="1.62846">
        <ele>6</ele>
        <time>2009-04-03T14:15:57Z</time>
      </trkpt>
      <trkpt lat="50.52136" lon="1.6283">
        <ele>5</ele>
        <time>2009-04-03T14:15:57Z</time>
      </trkpt>
      <trkpt lat="50.52083" lon="1.62814">
        <ele>4</ele>
        <time>2009-04-03T14:15:57Z</time>
      </trkpt>
      <trkpt lat="50.52075" lon="1.628">
        <ele>4</ele>
        <time>2009-04-03T14:15:57Z</time>
      </trkpt>
    </trkseg>
  </trk>
</gpx>